STARLINK-34799

Last updated on Thu Oct 02 2025 00:02:05 GMT+0000 (Coordinated Universal Time)

1 65472U 25195Q 25274.43699353 .00077433 00000+0 19249-2 0 9998 2 65472 53.1599 281.2863 0001378 92.1714 267.9449 15.39640330 5540

Satellite not in orbit

STARLINK-34799